Regional Weather Roundup
Issued by NWS Wilmington, NC

Home | Current Version | Previous Version | Text Only | Print | Product List | Glossary On
Versions: 1 2 3 4 5 6 7 8 9 10 11 12 13 14 15 16 17 18 19 20 21 22 23 24 25 26 27 28 29 30 31 32 33 34 35
000
ASUS42 KILM 231410
RWRILM
RWRILM
REGIONAL HOURLY WEATHER ROUNDUP
NATIONAL WEATHER SERVICE WILMINGTON NC
1000 AM EDT THU OCT 23 2014

NOTE: "FAIR" INDICATES FEW OR NO CLOUDS BELOW 12,000 FEET WITH NO
SIGNIFICANT WEATHER AND/OR OBSTRUCTIONS TO VISIBILITY.

...............WFO WILMINGTON COUNTY WARNING AREA...............

......COASTAL NC AND SC COUNTIES......

CITY           SKY/WX    TMP DP  RH WIND       PRES   REMARKS
WILMINGTON     SUNNY     56  43  61 N13       30.03S
SOUTHPORT      SUNNY     55  42  63 N10       30.03F
N MYRTLE BEACH SUNNY     56  44  64 N10       30.05S
MYRTLE BEACH   SUNNY     54  43  66 N9        30.06S

......INLAND NC AND SC COUNTIES.......

CITY           SKY/WX    TMP DP  RH WIND       PRES   REMARKS
LUMBERTON      SUNNY     56  42  59 NW7       30.05S
ELIZABETHTOWN  SUNNY     54  42  63 NW8       30.04S
WHITEVILLE     SUNNY     55  43  64 N8        30.04F
FLORENCE       SUNNY     56  42  59 N9        30.08R
DARLINGTON     SUNNY     55  39  54 N12G18    30.09R

....................REST OF NORTH CAROLINA......................

.........EASTERN NC.........

CITY           SKY/WX    TMP DP  RH WIND       PRES   REMARKS
CAPE HATTERAS  SUNNY     56  46  69 NW15G30   29.93S
JACKSONVILLE   SUNNY     55  41  58 NW7       30.01S
MOREHEAD CITY  SUNNY     58  46  64 N16       29.98S
KENANSVILLE    SUNNY     55  42  62 NW8       30.02S
NEW BERN       SUNNY     58  44  60 NW8       30.00S
ELIZABETH CITY PTSUNNY   57  44  62 W21       29.91F

.........CENTRAL NC.........

CITY           SKY/WX    TMP DP  RH WIND       PRES   REMARKS
RALEIGH DURHAM SUNNY     55  40  56 NW10G20   30.02S
ROCKY MOUNT    SUNNY     56  43  61 NW14      30.00S
ROANOKE RAPIDS NOT AVBL
FAYETTEVILLE   SUNNY     57  40  52 NW13G18   30.04R
HOFFMAN        SUNNY     54  42  62 NW9       30.07R

.........WESTERN NC.........

CITY           SKY/WX    TMP DP  RH WIND       PRES   REMARKS
CHARLOTTE      SUNNY     52  39  61 NW8       30.10R
GREENSBORO     SUNNY     54  40  59 NW8       30.05R
HICKORY        NOT AVBL
BOONE          NOT AVBL
ASHEVILLE      NOT AVBL

.....................REST OF SOUTH CAROLINA.....................

.........EASTERN SC.........

CITY           SKY/WX    TMP DP  RH WIND       PRES   REMARKS
CHARLESTON     SUNNY     59  45  59 N10       30.10R
BEAUFORT MCAS  SUNNY     58  45  62 N8        30.11R
HILTON HEAD    NOT AVBL

.........CENTRAL SC.........

CITY           SKY/WX    TMP DP  RH WIND       PRES   REMARKS
COLUMBIA       SUNNY     58  40  51 VRB6      30.11R
ORANGEBURG     SUNNY     53  42  66 NW5       30.11R
SUMTER SHAW    SUNNY     54  42  63 N8        30.09R

.........WESTERN SC.........

CITY           SKY/WX    TMP DP  RH WIND       PRES   REMARKS
GREENVILLE     NOT AVBL
ROCK HILL      SUNNY     53  41  63 N5        30.10R
ANDERSON       SUNNY     53  47  79 CALM      30.12S
CLEMSON        NOT AVBL
GREENWOOD      SUNNY     52  45  77 W5        30.14R


...................COASTAL AND OFFSHORE REPORTS..................

................LOCAL PIERS AND NC RESERVE................


STATION/POSITION TIME  SKY/WX   TEMP    WIND        PRES    VSBY
                                AIR SEA DIR/SP/G
                 (UTC)          (F)     (DEG/KT/KT) (MB)    (MI)
JOHNY MRCER PIER 1400            55 73  320/ 10/ 16 1015.7S
NC RESRV MASNBRO 1300            53     190/  2     1016.0S
OCEAN CREST PIER 1400            55 70  310/ 12/ 15 1015.9F
SPRINGMAID  PIER 1400            54 70  310/  8/ 12 1017.9R


................COASTAL AND OFFSHORE BUOYS................


STATION/POSITION TIME  SKY/WX   TEMP    WIND        PRES    VSBY
                                AIR SEA DIR/SP/G
                 (UTC)          (F)     (DEG/KT/KT) (MB)    (MI)
DIMNDSHOAL 41025 1300            59     310/ 27/ 33 1012.3R
WVE H/P(F/S)=  7/ 6 WND WVE H/P(F/S)=  7/ 6 SWL H/P/D(F/S/D)=  2/ 40/ 9

CAPE LOOKOUT     1300            55     320/ 14/ 17 1015.1R
ONSLOW BAY 41036 1400            60 75  340/ 19/ 23 1015.0R
WVE H/P(F/S)=  4/ 5 WND WVE H/P(F/S)=  3/ 5

5 WRITEBCH 41038 1400            54 72  320/ 12/ 12   N/A
MASONBORO  41110 1400               72                N/A
WVE H/P(F/S)=  2/ 3 WND WVE H/P(F/S)=  2/ 3

WILM HARBR 41108 1400               71                N/A
WVE H/P(F/S)=  3/ 4 WND WVE H/P(F/S)=  3/ 4

27WRITEBCH 41037 1300            57 75  350/ 17/ 21 1015.8R
FRYING PAN 41013 1400            59 74  340/ 14/ 16 1017.4R
WVE H/P(F/S)=  4/ 5 WND WVE H/P(F/S)=  3/ 5 SWL H/P/D(F/S/D)=  2/120/10

SUNST NRSH 41024 1300            54     340/ 12/ 14 1017.0R
CAPRS NRSH 41029 NOT AVBL
EDISTO     41004 1400            62 78  340/  6/ 10 1017.7R
WVE H/P(F/S)=  4/ 5 WND WVE H/P(F/S)=  2/ 4 SWL H/P/D(F/S/D)=  3/ 5



..........OFFSHORE BUOYS BEYOND 100 NM OFFSHORE...........
.....IN A TRIANGLE---HAT TO BERMUDA TO BAHAMAS TO HAT.....


STATION/POSITION TIME  SKY/WX   TEMP    WIND        PRES    VSBY
                                AIR SEA DIR/SP/G
                 (UTC)          (F)     (DEG/KT/KT) (MB)    (MI)
150E HAT   41001 NOT AVBL
W BERMUDA  41048 1252            74 79  270/ 17/ 25 1011.2R
WVE H/P(F/S)=  8/ 8 WND WVE H/P(F/S)=  7/ 8 SWL H/P/D(F/S/D)=  2/270/14

ATLANTIC S 41049 1348            81 81  180/ 12/ 14 1015.3R
WVE H/P(F/S)=  3/ 9 WND WVE H/P(F/S)=  2/ 3 SWL H/P/D(F/S/D)=  3/ 80/ 9

E BAHAMAS  41046 1350            83 83  150/ 10/ 12 1014.4R
WVE H/P(F/S)=  3/ 9 WND WVE H/P(F/S)=  2/ 5 SWL H/P/D(F/S/D)=  3/ 80/ 9

NE BAHAMAS 41047 1255            77 81  310/  8/ 10 1013.9R
WVE H/P(F/S)=  3/10 WND WVE H/P(F/S)=  2/ 4 SWL H/P/D(F/S/D)=  2/100/10

120E CANVRL41010 1400            73 81   30/ 14/ 16 1016.3R
WVE H/P(F/S)=  4/ 7 WND WVE H/P(F/S)=  3/ 6 SWL H/P/D(F/S/D)=  3/360/ 7


END



USA.gov is the U.S. government's official web portal to all federal, state and local government web resources and services.